Regional Weather Roundup
Issued by NWS

Home | Current Version | Previous Version | Graphics & Text | Print | Product List | Glossary On
Versions: 1 2 3 4 5 6 7 8 9 10 11 12 13 14 15 16 17 18 19 20 21 22 23 24 25 26 27 28 29 30 31 32 33 34 35 36 37 38 39 40 41 42 43 44 45 46 47 48 49 50
677
ASUS43 KLSX 241010
RWRMO

WEATHER SUMMARY FOR MISSOURI
NATIONAL WEATHER SERVICE SPRINGFIELD MO
500 AM CDT TUE MAY 24 2016

NOTE: "FAIR" INDICATES FEW OR NO CLOUDS BELOW 12,000 FEET WITH NO
       SIGNIFICANT WEATHER AND/OR OBSTRUCTIONS TO VISIBILITY.
       CURRENT SKY AND/OR WEATHER CONDITIONS ARE NOT AVAILABLE FOR
       CHILLICOTHE AND FARMINGTON.

MOZ001>031-035>038-043-044-053-054-241100-
...NORTHERN AND WESTERN MISSOURI...

CITY           SKY/WX    TMP DP  RH WIND       PRES   REMARKS
KANSAS CTY INT CLOUDY    63  60  90 S3        29.91R
KANSAS C DTWN  CLOUDY    65  61  87 E5        29.89R
LEE`S SUMMIT   CLOUDY    64  61  90 SE5       29.91R
ST JOSEPH      PTCLDY    64  60  87 S12       29.87F
CHILLICOTHE      N/A     64  61  90 CALM      29.92S
KIRKSVILLE     CLOUDY    63  59  87 W6        29.93S

$$
MOZ066>068-077>081-088>096-101>105-241100-
...SOUTHWEST MISSOURI...

CITY           SKY/WX    TMP DP  RH WIND       PRES   REMARKS
SPRINGFIELD    CLOUDY    64  61  90 S9        29.93R
JOPLIN         CLOUDY    65  62  90 SE7       29.90R

$$
MOZ032>034-039>042-045>050-055>058-069>072-241100-
...CENTRAL MISSOURI...

CITY           SKY/WX    TMP DP  RH WIND       PRES   REMARKS
COLUMBIA       CLEAR     62  59  90 S6        29.94S
JEFFERSON CITY CLEAR     63  59  87 SE5       29.94S
ROLLA          CLOUDY    62  57  83 S7        29.94F
SEDALIA        CLEAR     61  59  93 SE5       29.94R
WHITEMAN AFB   MOCLDY    61  61 100 S6        29.91R
WARRENSBURG    CLOUDY    61  59  94 CALM      29.91R
OSAGE BEACH      N/A    N/A N/A N/A SE3       29.95

$$
MOZ051-052-059>065-241100-
...EAST CENTRAL MISSOURI...

CITY           SKY/WX    TMP DP  RH WIND       PRES   REMARKS
ST LOUIS INTL  MOCLDY    69  54  58 S9        29.97S
SPIRIT OF STL  CLOUDY    67  56  67 S6        29.95S
ST CHARLES     PTCLDY    63  57  81 SE7       29.95S

$$
MOZ072>076-082>087-097>100-106>115-241100-
...SOUTH CENTRAL AND SOUTHEAST MISSOURI...

CITY           SKY/WX    TMP DP  RH WIND       PRES   REMARKS
CAPE GIRARDEAU CLOUDY    64  61  90 CALM      30.00R
FARMINGTON     CLOUDY    63  59  87 E3        29.99S
POPLAR BLUFF   CLOUDY    65  62  90 N3        29.98R
WEST PLAINS    PTCLDY    63  56  78 CALM      29.99R

$$




USA.gov is the U.S. government's official web portal to all federal, state and local government web resources and services.